Location: Coleto Creek Park and Reservoir
(28.7196°N, 97.1740°W)
Time: 09:45:00
(UTC-05:00)

Hubble Space Telescope - Visible Passes

Search period start: 27 June 2016 00:00
Search period end: 07 July 2016 00:00
Orbit: 539 x 543 km, 28.5° (Epoch: 26 June)

Date Brightness Start Highest point End Pass type
(mag) Time Alt. Az. Time Alt. Az. Time Alt. Az.
27 Jun 2.2 05:25:38 19° SSW 05:25:54 20° SSW 05:28:56 10° SSE visible
27 Jun 3.1 22:28:06 10° SW 22:28:35 13° SW 22:28:35 13° SW visible
28 Jun 2.9 05:17:45 13° S 05:17:45 13° S 05:18:35 10° S visible
28 Jun 2.0 22:18:11 10° SW 22:20:33 28° SSW 22:20:33 28° SSW visible
29 Jun 1.0 22:08:21 10° WSW 22:12:15 46° SSE 22:12:15 46° SSE visible
30 Jun 0.8 21:58:33 10° WSW 22:02:37 55° SSE 22:03:43 40° ESE visible
01 Jul 0.7 21:48:49 10° WSW 21:52:55 65° SSE 21:54:58 28° E visible
01 Jul 3.6 23:30:00 10° W 23:30:22 12° W 23:30:22 12° W visible
02 Jul 0.7 21:39:06 10° WSW 21:43:13 73° S 21:46:01 20° E visible
02 Jul 3.2 23:20:20 10° W 23:21:25 18° W 23:21:25 18° W visible
03 Jul 0.7 21:29:24 10° W 21:33:32 80° S 21:36:56 15° E visible
03 Jul 2.8 23:10:40 10° W 23:12:20 23° W 23:12:20 23° W visible
04 Jul 0.7 21:19:43 10° W 21:23:52 85° S 21:27:45 12° E visible
04 Jul 2.4 23:01:00 10° W 23:03:08 29° W 23:03:08 29° W visible
05 Jul 0.7 21:10:03 10° W 21:14:12 88° S 21:18:20 10° E visible
05 Jul 2.0 22:51:20 10° W 22:53:53 35° W 22:53:53 35° W visible
06 Jul 0.8 21:00:23 10° W 21:04:31 88° S 21:08:40 10° E visible
06 Jul 1.7 22:41:40 10° W 22:44:34 40° WSW 22:44:34 40° WSW visible
